Regional Weather Roundup
Issued by NWS

Home | Current Version | Previous Version | Graphics & Text | Print | Product List | Glossary On
Versions: 1 2 3 4 5 6 7 8 9 10 11 12 13 14 15 16 17 18 19 20 21 22 23 24 25 26 27 28 29 30 31 32 33 34 35 36 37 38 39 40 41 42 43 44 45 46 47 48 49 50
000
ASUS43 KFSD 220810
RWRSD

WEATHER ROUNDUP FOR SOUTH DAKOTA
NATIONAL WEATHER SERVICE SIOUX FALLS SD
200 AM CST THU FEB 22 2018

NOTE: "FAIR" INDICATES FEW OR NO CLOUDS BELOW 12,000 FEET WITH NO
SIGNIFICANT WEATHER AND/OR OBSTRUCTIONS TO VISIBILITY.


SDZ001>005-009-010-012>017-220900-
NORTHWEST AND NORTH CENTRAL SOUTH DAKOTA

CITY           SKY/WX    TMP DP  RH WIND       PRES   REMARKS
BUFFALO          N/A     -8 -12  83 N5        30.08F WCI -19
FAITH            N/A     -4  -6  91 CALM      30.22F
MOBRIDGE       FAIR      -5  -9  83 CALM      30.30F
$$

SDZ012>016-024>037-041>051-057-063-072>074-220900-
SOUTHWEST AND SOUTH CENTRAL SOUTH DAKOTA

CITY           SKY/WX    TMP DP  RH WIND       PRES   REMARKS
RAPID CTY ARPT FAIR       6  -2  69 NE5       30.15F WCI  -3
PIERRE         FAIR       9   4  80 SE9       30.33F WCI  -4
CUSTER         FAIR       5   0  79 NW3       30.03F
ELLSWORTH AFB  FAIR       7   0  72 CALM      30.14S
PHILIP         FAIR      -2  -6  83 S3        30.26F
PINE RIDGE     MOCLDY    19   9  65 S17G25    30.17F WCI   4
SPEARFISH        N/A      7  -2  66 SW5       30.10F WCI  -2
WINNER         FAIR      18   8  65 S14       30.34F WCI   4
$$

SDZ004>011-016>023-039-040-220900-
NORTHEAST SOUTH DAKOTA

CITY           SKY/WX    TMP DP  RH WIND       PRES   REMARKS
ABERDEEN       FAIR       7   1  76 S13       30.43F WCI  -9
WATERTOWN      FAIR       5   0  79 S7        30.45F WCI  -7
BROOKINGS      FAIR       6   1  80 SE6       30.49S WCI  -4
SISSETON         N/A     -2  -7  79 SE9       30.51S WCI -18
$$

SDZ017-020-022-023-036>040-048>070-220900-
SOUTHEAST SOUTH DAKOTA

CITY           SKY/WX    TMP DP  RH WIND       PRES   REMARKS
SIOUX FALLS    FAIR      10   5  80 NE3       30.49F
HURON          FAIR       5   1  83 SE8       30.45F WCI  -8
CHAMBERLAIN    FAIR      11   7  83 E12       30.38F WCI  -4
MITCHELL       FAIR       9   4  80 SE8       30.47F WCI  -3
YANKTON        FAIR      16  10  77 E5        30.48F WCI   9
$$

ABBREVIATIONS USED IN REMARKS
   TC - TEMPERATURE IN CELSIUS
  WCI - WIND CHILL INDEX
   HX - HEAT INDEX
  VSB - VISIBILITY





USA.gov is the U.S. government's official web portal to all federal, state and local government web resources and services.